This demonstration page uses our WeatherBlox Daily Observations layout. Learn more.

Left ArrowRight Arrow

Hourly Observations for July 5, 2022

Temp ( °F °C ) Dew Point ( °F °C ) Humidity (%) Winds ( mph kmh ) Pressure ( in mb ) Visibility ( mi km ) Precip ( " mm )
12:06 am 00:06 Clear with Nearby Thunderstorms 75 23.9 71 21.7 88 88 ENE 3 6 30.09 1019 10 16 0.00 0.00
12:28 am 00:28 Mostly Clear with Thunderstorms 75 23.9 72 22.2 90 90 SSE 7 11 30.10 1019 8 13 0.00 0.00
12:43 am 00:43 Mostly Cloudy with Nearby Thunderstorms 76 24.4 72 22.2 88 88 SSE 8 13 30.11 1020 9 14 0.00 0.00
12:53 am 00:53 Cloudy with Nearby Thunderstorms 76 24.4 72 22.2 88 88 SSE 15 24 30.12 1020 10 16 0.00 0.00
1:18 am 01:18 Cloudy with Strong Thunderstorms 73 22.8 69 20.6 87 87 VRB 3 6 30.10 1019 4 6 0.11 2.79
1:40 am 01:40 Cloudy with Nearby Thunderstorms 73 22.8 70 21.1 90 90 NNE 3 6 30.09 1019 10 16 0.19 4.83
1:53 am 01:53 Mostly Cloudy with Light Rain 73 22.8 71 21.7 94 94 Calm 30.07 1018 10 16 0.19 4.83
2:53 am 02:53 Clear 73 22.8 71 21.7 94 94 Calm 30.06 1018 10 16 0.00 0.00
3:53 am 03:53 Clear 73 22.8 71 21.7 94 94 Calm 30.06 1018 10 16 0.00 0.00
4:53 am 04:53 Clear 72 22.2 71 21.7 97 97 Calm 30.06 1018 10 16 0.00 0.00
5:53 am 05:53 Clear 72 22.2 70 21.1 94 94 NNW 5 7 30.07 1018 10 16 0.00 0.00
6:53 am 06:53 Sunny 73 22.8 71 21.7 94 94 Calm 30.08 1019 10 16 0.00 0.00
7:53 am 07:53 Sunny 74 23.3 73 22.8 97 97 Calm 30.09 1019 10 16 0.00 0.00
8:53 am 08:53 Sunny 78 25.6 74 23.3 87 87 Calm 30.10 1019 10 16 0.00 0.00
9:53 am 09:53 Sunny 81 27.2 74 23.3 79 79 N 3 6 30.11 1020 10 16 0.00 0.00
10:53 am 10:53 Mostly Sunny 84 28.9 75 23.9 74 74 Calm 30.09 1019 10 16 0.00 0.00
11:53 am 11:53 Partly Cloudy 85 29.4 74 23.3 70 70 Calm 30.08 1019 10 16 0.00 0.00
12:53 pm 12:53 Partly Cloudy 88 31.1 74 23.3 63 63 VRB 6 9 30.06 1018 10 16 0.00 0.00
1:53 pm 13:53 Cloudy 87 30.6 73 22.8 63 63 W 3 6 30.04 1017 10 16 0.00 0.00
2:53 pm 14:53 Mostly Sunny 89 31.7 73 22.8 59 59 W 5 7 30.01 1016 10 16 0.00 0.00
3:53 pm 15:53 Mostly Cloudy 90 32.2 70 21.1 52 52 undefined N/A 29.99 1016 10 16 0.00 0.00
4:53 pm 16:53 Mostly Cloudy 92 33.3 73 22.8 54 54 undefined N/A 29.97 1015 10 16 0.00 0.00
5:53 pm 17:53 Mostly Sunny 92 33.3 72 22.2 52 52 VRB 5 7 29.96 1015 10 16 0.00 0.00
6:36 pm 18:36 Sunny with Nearby Thunderstorms 87 30.6 73 22.8 63 63 SSW 6 9 29.95 1014 10 16 0.00 0.00
6:53 pm 18:53 Partly Cloudy with Nearby Thunderstorms 87 30.6 71 21.7 59 59 SW 5 7 29.97 1015 10 16 0.00 0.00
7:20 pm 19:20 Sunny 86 30 74 23.3 67 67 NW 8 13 29.96 1014 10 16 0.00 0.00
7:53 pm 19:53 Sunny 86 30 75 23.9 70 70 NNW 5 7 29.98 1015 10 16 0.00 0.00
8:53 pm 20:53 Mostly Clear 85 29.4 75 23.9 72 72 Calm 29.99 1016 10 16 0.00 0.00
9:53 pm 21:53 Clear 83 28.3 75 23.9 77 77 Calm 29.99 1016 10 16 0.00 0.00
10:53 pm 22:53 Clear 80 26.7 75 23.9 85 85 Calm 30.01 1016 10 16 0.00 0.00
11:53 pm 23:53 Clear 80 26.7 76 24.4 87 87 Calm 30.00 1016 10 16 0.00 0.00

Powered by AerisWeather